This is the latest recevied weather packets stored in our database for station/object N8QQQ. If no packets are shown the sender has not sent any weather packets the latest 10 day(s).
| Time | Temp. | Humidity | Pressure | Rain* | Wind** | Luminosity | Snow |
|---|---|---|---|---|---|---|---|
| 1777735362 | 7.78° C | 38% | 1016 hPa | 0 mm | - | 533 W/m² | - |
| 1777735059 | 7.78° C | 39% | 1016.1 hPa | 0 mm | - | 551 W/m² | - |
| 1777734756 | 7.22° C | 39% | 1016.2 hPa | 0 mm | - | 518 W/m² | - |
| 1777734454 | 7.22° C | 40% | 1016.2 hPa | 0 mm | - | 501 W/m² | - |
| 1777734150 | 6.67° C | 41% | 1016 hPa | 0 mm | - | 490 W/m² | - |
| 1777733846 | 6.67° C | 40% | 1016.1 hPa | 0 mm | - | 479 W/m² | - |
| 1777733543 | 6.67° C | 41% | 1016.5 hPa | 0 mm | - | 468 W/m² | - |
| 1777733240 | 6.11° C | 43% | 1016.3 hPa | 0 mm | - | 457 W/m² | - |
| 1777732936 | 6.11° C | 43% | 1016.3 hPa | 0 mm | - | 447 W/m² | - |
| 1777732632 | 5.56° C | 44% | 1016.4 hPa | 0 mm | - | 230 W/m² | - |
| 1777732330 | 6.11° C | 43% | 1016.5 hPa | 0 mm | - | 185 W/m² | - |
| 1777732028 | 6.11° C | 44% | 1016.6 hPa | 0 mm | - | 276 W/m² | - |
| 1777731724 | 5.56° C | 44% | 1016.7 hPa | 0 mm | - | 396 W/m² | - |
| 1777731421 | 5° C | 45% | 1017.1 hPa | 0 mm | - | 387 W/m² | - |
| 1777731120 | 5° C | 44% | 1016.7 hPa | 0 mm | - | 318 W/m² | - |
| 1777730514 | 5° C | 45% | 1016.8 hPa | 0 mm | - | 69 W/m² | - |
| 1777730209 | 3.89° C | 44% | 1017 hPa | 0 mm | - | 37 W/m² | - |
| 1777729907 | 3.89° C | 48% | 1017 hPa | 0 mm | - | 50 W/m² | - |
| 1777729603 | 3.89° C | 53% | 1017.2 hPa | 0 mm | - | 116 W/m² | - |
| 1777729300 | 3.89° C | 52% | 1017 hPa | 0 mm | - | 51 W/m² | - |
| 1777728996 | 3.33° C | 55% | 1017.2 hPa | 0 mm | - | 132 W/m² | - |
| 1777728693 | 3.33° C | 55% | 1017.1 hPa | 0 mm | - | 180 W/m² | - |
| 1777728390 | 3.33° C | 56% | 1017.2 hPa | 0 mm | - | 145 W/m² | - |
| 1777728087 | 2.78° C | 56% | 1017.1 hPa | 0 mm | - | 125 W/m² | - |
| 1777727785 | 2.78° C | 57% | 1017.3 hPa | 0 mm | - | 87 W/m² | - |
* Rain latest hour (hover to see other rain measurements)
** Current wind speed in m/s (hover to see current wind gust speed)